Regional Weather Roundup
Issued by NWS Upton, NY

Current Version | Previous Version | Graphics & Text | Print | Product List | Glossary Off
Versions: 1 2 3 4 5 6 7 8 9 10 11 12 13 14 15 16 17 18 19 20 21 22 23 24 25 26 27 28 29 30 31 32 33 34 35 36 37 38 39 40 41 42 43 44 45 46 47 48 49 50
000 ASUS41 KOKX 302205 RWROKX REGIONAL WEATHER ROUNDUP NATIONAL WEATHER SERVICE NEW YORK NY 500 PM EST FRI JAN 30 2015 NOTE: "FAIR" INDICATES FEW OR NO CLOUDS BELOW 12,000 FEET WITH NO SIGNIFICANT WEATHER AND/OR OBSTRUCTIONS TO VISIBILITY. NYZ071-072-176-178-NJZ106-104-302300- NEW YORK CITY METRO AREA CITY SKY/WX TMP DP RH WIND PRES REMARKS CENTRAL PARK PTCLDY 35 14 42 NW13G31 29.90R WCI 26 LAGUARDIA APRT PTCLDY 34 17 50 NW23G31 29.87R WCI 22 KENNEDY INTL PTCLDY 35 15 44 NW29G39 29.87R WCI 22 NEWARK/LIBERTY MOCLDY 33 18 53 NW21G32 29.90R WCI 21 BRNX BOT. GARD N/A N/A N/A N/A W21 29.89R TETERBORO MOCLDY 34 16 47 NW22G29 29.88R WCI 22 $$ NYZ177-179-078>081-302300- LONG ISLAND NEW YORK CITY SKY/WX TMP DP RH WIND PRES REMARKS FARMINGDALE CLEAR 35 16 45 NW14G25 29.85R WCI 26 ISLIP CLOUDY 34 21 59 NW16G25 29.81R WCI 24 SHIRLEY CLOUDY 34 23 64 NW16G23 29.82R WCI 24 WESTHAMPTON MOCLDY 33 22 63 NW10 29.81R WCI 25 MONTAUK POINT N/A 35 25 66 NW14G23 29.77R WCI 26 $$ NYZ052-065-067-302300- HUDSON VALLEY CITY SKY/WX TMP DP RH WIND PRES REMARKS WHITE PLAINS PTCLDY 31 15 52 NW20G36 29.83R WCI 19 NEWBURGH PTCLDY 28 18 64 NW17G35 29.89R WCI 16 MONTGOMERY CLOUDY 30 15 53 NW20G31 29.90R WCI 17 POUGHKEEPSIE MOCLDY 32 13 45 NW15G23 29.88R WCI 22 ALBANY MOCLDY 23 12 62 NW23G35 29.92R WCI 7 $$ NJZ001-105-106-008-010-013-015-019>022-104-302300- NEW JERSEY CITY SKY/WX TMP DP RH WIND PRES REMARKS NEWARK/LIBERTY MOCLDY 33 18 53 NW21G32 29.90R WCI 21 TETERBORO MOCLDY 34 16 47 NW22G29 29.88R WCI 22 CALDWELL MOCLDY 32 16 51 NW12G22 29.91R WCI 23 MORRISTOWN PTCLDY 32 14 47 N15G29 29.91R WCI 22 SOMERVILLE PTCLDY 33 15 47 NW24G35 29.93R WCI 20 SUSSEX PTCLDY 28 12 51 NW12G25 29.93R WCI 18 ANDOVER N/A 27 13 55 N12G28 29.94R WCI 17 TRENTON CLEAR 34 18 52 NW15G28 29.93R WCI 24 MILLVILLE CLEAR 34 21 59 NW14 29.97R WCI 25 ATLANTIC CITY CLOUDY 35 24 64 W24G33 29.93R WCI 23 WRIGHTSTOWN PTCLDY 35 19 51 NW18G28 29.90R WCI 24 TOMS RIVER PTCLDY 36 18 48 NW18G29 29.90R WCI 25 BELMAR MOCLDY 36 16 44 NW28G36 29.88R WCI 23 $$ PAZ047>061-062-071-302300- EASTERN PENNSYLVANIA CITY SKY/WX TMP DP RH WIND PRES REMARKS PHILADELPHIA FLURRIES 35 24 64 NW15G25 30.00R WCI 25 ALLENTOWN PTCLDY 30 17 58 NW21G29 29.98R WCI 17 SCRANTON MIX PCPN 22 9 57 NW18G31 30.01R WCI 7 $$ CTZ002-004>006-009-010-012-RIZ004-006-007-MAZ004-011-015-302300- SOUTHERN NEW ENGLAND IN CT CITY SKY/WX TMP DP RH WIND PRES REMARKS BRADLEY INTL MOCLDY 31 17 56 NW16G23 29.80R WCI 20 HARTFORD CLOUDY 31 18 58 NW10G26 29.82R WCI 22 DANBURY CLOUDY 31 13 47 NW17G26 29.83R WCI 19 WTRBRY/OXFORD MOCLDY 28 12 50 N12G29 29.80R WCI 18 BRIDGEPORT MOCLDY 33 19 56 NW12G24 29.82R WCI 24 MERIDEN CLOUDY 31 16 54 NW16G26 29.81R WCI 20 NEW HAVEN PTCLDY 32 17 54 N18G24 29.81R WCI 20 CHESTER MOCLDY 32 19 59 NW15G23 29.78R WCI 22 GROTON CLOUDY 32 22 66 NW14 29.76R WCI 22 WILLIMANTIC LGT SNOW 31 22 69 NW13G25 29.77R WCI 21 IN RI CITY SKY/WX TMP DP RH WIND PRES REMARKS PROVIDENCE FLURRIES 33 26 75 NW12G20 29.74R WCI 24 BLOCK ISLAND MOCLDY 34 25 69 NW14G21 29.72S WCI 24 WESTERLY CLOUDY 34 24 67 NW10 29.75R WCI 26 IN MA CITY SKY/WX TMP DP RH WIND PRES REMARKS BOSTON CLOUDY 32 27 81 NW9 29.72R WCI 24 WORCESTER LGT SNOW 28 24 85 NW14 29.71R FOG WCI 17 WESTFIELD CLOUDY 29 18 63 NW14G24 29.80R WCI 18 PROVINCETOWN CLOUDY 34 28 80 NW12 29.69F WCI 25 NANTUCKET CLOUDY 35 32 88 NW12 29.67S WCI 27 $$ ANZ330-335-338-340-345-350-353-355-302300- COASTAL MARINE OBSERVATIONS STATION/POSITION TIME SKY/WX TEMP WIND PRES VSBY WAVE AIR SEA DIR/SP/G HT/PER (UTC) (F) (DEG/KT/KT) (MB) (MI) (FT/S) NY HARB ENTRANCE 2200 38 40 310/ 25/ 33 1010.1 4/ 5 4S FIRE IS 2200 38 N/A 3/ 6 20S FIRE ISLAND 2100 41 1009.3 5/ 5 23SW MTP 2200 N/A 5/ 5 HUDSON CANYON NOT AVBL EXECUTION ROCKS 2100 36 33 300/ 21/ 31 N/A WESTERN LI SOUND 2100 36 300/ 21/ 27 N/A 2/ 3 CENTRAL LI SOUND 2100 34 35 330/ 17/ 19 N/A 2/ 4 EASTERN LI SOUND NOT AVBL ROBBINS REEF 2200 35 320/ 16/ 22 1010.5 $$ >>>>>>>>>>>>>>>>>>>>>>>>>>>> KEY <<<<<<<<<<<<<<<<<<<<<<<<<<< > < > SKY/WX - SKY CONDITION/PRESENT WEATHER < > TMP - TEMPERATURE IN FAHRENHEIT < > DP - DEWPOINT IN FAHRENHEIT < > RH - RELATIVE HUMIDITY IN PERCENT < > WIND - DIRECTION AND SPEED IN MPH < > PRES - MEAN SEA LEVEL PRESSURE IN INCHES OF HG < > WCI - WIND CHILL INDEX < > VSB - VISIBILITY IN MILES < > HX - HEAT INDEX < > TC - TEMPERATURE IN CELSIUS < > VRB - VARIABLE WIND DIRECTION < > < >>>>>>>>>>>>>>>>>>>>>>>>>>>> KEY <<<<<<<<<<<<<<<<<<<<<<<<<<<

USA.gov is the U.S. government's official web portal to all federal, state and local government web resources and services.